Location: Unspecified
(0.0000°N, 0.0000°E)
Time: 08:10:25
(UTC+00:00)

AIST 2 - Visible Passes

Search period start: 10 June 2023 00:00
Search period end: 20 June 2023 00:00
Orbit: 519 x 561 km, 64.9° (Epoch: 09 June)

Date Brightness Start Highest point End Pass type
(mag) Time Alt. Az. Time Alt. Az. Time Alt. Az.
14 Jun ? 18:56:26 10° SSE 19:03:16 - ENE 18:57:06 13° SSE visible
14 Jun ? 20:37:49 14° WNW 20:37:49 14° WNW 20:39:43 10° NNW visible
15 Jun ? 18:47:59 10° S 18:51:27 27° ESE 18:54:55 10° NE visible
15 Jun ? 20:28:13 10° W 20:29:21 11° WNW 20:30:31 10° NW visible
16 Jun ? 18:39:37 10° S 18:43:22 35° ESE 18:47:07 10° NE visible
17 Jun ? 18:31:21 10° S 18:35:17 47° ESE 18:39:14 10° NE visible
18 Jun ? 18:23:09 10° SSW 18:27:11 64° ESE 18:31:15 10° NNE visible
